Location: Guadanolo
(41.9167°N, 12.9333°E)
Time: 03:42:14
(UTC+00:00)

Cosmos 614 Rocket - Pass Details

Date: 16 September 2019
Orbit: 733 x 764 km, 74.1° (Epoch: 17 October)

Event Time Altitude Azimuth Distance (km) Brightness Sun altitude
Rises 19:36:07 0° 339° (NNW) 3,236 8.0 -25.5°
Reaches altitude 10° 19:38:30 10° 338° (NNW) 2,304 7.1 -25.9°
Maximum altitude 19:43:44 82° 253° (WSW) 772 3.9 -26.7°
Enters shadow 19:43:51 81° 226° (SW) 773 3.9 -26.8°
